{"data":{"norad_id":44885,"epoch":"2026-09-20T05:05:36.411072Z","epoch_age_seconds":86570,"freshness":"FRESH","line1":"1 44885U 19093G   26263.21222698  .00003472  00000+0  25074-3 0  9998","line2":"2 44885  97.7920 358.1917 0012488 107.6861 252.5729 15.04706762366938","mean_motion":15.04706762,"eccentricity":0.0012488,"inclination_deg":97.792,"raan_deg":358.1917,"arg_perigee_deg":107.6861,"mean_anomaly_deg":252.5729,"bstar":0.00025074,"rev_number":36693,"period_min":95.699709495956,"perigee_km":543.75109234546,"apogee_km":561.06081642833,"semimajor_km":6930.5429543869,"source":"CELESTRAK","updated_at":"2026-09-20T09:00:14.572024Z"}}